Change the Weather History Date:

Friday, April 26, 2013

  Actual Average Record
Temperature  
Mean Temperature 60 °F -  
Max Temperature 72 °F 71 °F 92 °F (1981)
Min Temperature 49 °F 45 °F 29 °F (1950)
Degree Days  
Heating Degree Days 4    
Growing Degree Days 10 (Base 50)    
Moisture  
Dew Point 40 °F    
Average Humidity 49    
Maximum Humidity 81    
Minimum Humidity 28    
Precipitation  
Precipitation 0.00 in - - ()
Sea Level Pressure  
Sea Level Pressure 30.07 in    
Wind  
Wind Speed 11 mph (SSE)    
Max Wind Speed 16 mph    
Max Gust Speed 22 mph    
Visibility 10 miles    
Events      
Averages and records for this station are not official NWS values.
T = Trace of Precipitation, MM = Missing Value Source: NWS Daily Summary

Daily Weather History Graph

Daily Weather History Graph

Search for Another Location

Airport or City:

Trip Planner

Search our weather history database for the weather conditions in past years. The results will help you decide how hot, cold, wet, or windy it might be!

Date:

Astronomy

Apr. 26, 2013 Rise Set
Actual Time 6:29 AM CDT 8:18 PM CDT
Civil Twilight 5:59 AM CDT 8:48 PM CDT
Nautical Twilight 5:23 AM CDT 9:24 PM CDT
Astronomical Twilight 4:45 AM CDT 10:03 PM CDT
Moon 9:43 PM CDT (4/26) 6:57 AM CDT (4/26)
Length of Visible Light 14h 48m
Length of Day
13h 49m
Full, 99% of the Moon is Illuminated
Apr 26
Full
May 2
Last Quarter
May 9
New
May 17
First Quarter
May 24
Full

Hourly Weather History & Observations

Time (CDT) Temp. Dew Point Humidity Pressure Visibility Wind Dir Wind Speed Gust Speed Precip Events Conditions
12:15 AM 56.3 °F 35.2 °F 45% 30.04 in 10.0 mi South 12.7 mph 18.4 mph N/A   Clear
12:35 AM 55.8 °F 35.8 °F 47% 30.05 in 10.0 mi SSE 13.8 mph 18.4 mph N/A   Clear
12:55 AM 54.5 °F 36.1 °F 50% 30.05 in 10.0 mi SSE 12.7 mph 18.4 mph N/A   Clear
1:15 AM 54.0 °F 36.5 °F 52% 30.05 in 10.0 mi SSE 16.1 mph 19.6 mph N/A   Clear
1:35 AM 53.8 °F 36.5 °F 52% 30.05 in 10.0 mi SSE 13.8 mph - N/A   Clear
2:15 AM 53.4 °F 35.6 °F 51% 30.04 in 10.0 mi SSE 13.8 mph 18.4 mph N/A   Clear
2:35 AM 53.6 °F 34.7 °F 49% 30.03 in 10.0 mi SSE 15.0 mph 20.7 mph N/A   Scattered Clouds
2:55 AM 53.4 °F 34.7 °F 49% 30.03 in 10.0 mi SSE 15.0 mph 21.9 mph N/A   Clear
3:15 AM 52.7 °F 34.9 °F 51% 30.02 in 10.0 mi SSE 15.0 mph 19.6 mph N/A   Clear
3:35 AM 52.2 °F 34.9 °F 52% 30.01 in 10.0 mi SSE 16.1 mph 19.6 mph N/A   Clear
3:55 AM 51.8 °F 34.7 °F 52% 30.01 in 10.0 mi SSE 12.7 mph 19.6 mph N/A   Clear
4:15 AM 51.1 °F 34.7 °F 54% 30.01 in 10.0 mi SSE 12.7 mph 18.4 mph N/A   Clear
4:35 AM 50.7 °F 35.1 °F 55% 30.01 in 10.0 mi SSE 11.5 mph - N/A   Clear
4:55 AM 50.0 °F 35.2 °F 57% 30.01 in 10.0 mi SSE 11.5 mph - N/A   Clear
5:15 AM 49.6 °F 35.2 °F 58% 30.01 in 10.0 mi SSE 9.2 mph - N/A   Clear
5:35 AM 49.8 °F 35.1 °F 57% 30.01 in 10.0 mi SSE 10.4 mph - N/A   Clear
5:55 AM 50.2 °F 34.9 °F 56% 30.00 in 10.0 mi SSE 10.4 mph - N/A   Clear
6:15 AM 50.2 °F 34.9 °F 56% 30.01 in 10.0 mi SSE 5.8 mph - N/A   Clear
6:35 AM 49.6 °F 35.1 °F 57% 30.02 in 10.0 mi SSE 8.1 mph - N/A   Clear
6:55 AM 49.3 °F 35.4 °F 59% 30.02 in 10.0 mi SSE 6.9 mph - N/A   Clear
7:15 AM 49.8 °F 35.6 °F 58% 30.03 in 10.0 mi South 9.2 mph - N/A   Clear
7:35 AM 51.8 °F 35.8 °F 54% 30.04 in 10.0 mi South 13.8 mph - N/A   Clear
7:55 AM 52.7 °F 36.0 °F 53% 30.05 in 10.0 mi South 10.4 mph - N/A   Clear
8:15 AM 52.3 °F 36.7 °F 55% 30.05 in 10.0 mi South 11.5 mph - N/A   Clear
8:35 AM 53.8 °F 37.2 °F 54% 30.06 in 10.0 mi South 13.8 mph 17.3 mph N/A   Clear
8:55 AM 55.4 °F 38.1 °F 52% 30.06 in 10.0 mi South 12.7 mph 17.3 mph N/A   Clear
9:15 AM 56.7 °F 38.7 °F 51% 30.06 in 10.0 mi South 16.1 mph 19.6 mph N/A   Clear
9:35 AM 57.9 °F 39.6 °F 50% 30.07 in 10.0 mi South 13.8 mph 19.6 mph N/A   Clear
9:55 AM 59.2 °F 39.9 °F 49% 30.07 in 10.0 mi South 12.7 mph 18.4 mph N/A   Clear
10:15 AM 61.3 °F 40.1 °F 46% 30.07 in 10.0 mi South 12.7 mph 19.6 mph N/A   Clear
10:35 AM 62.6 °F 39.7 °F 43% 30.07 in 10.0 mi South 12.7 mph 19.6 mph N/A   Clear
10:55 AM 63.5 °F 39.2 °F 41% 30.08 in 10.0 mi SSW 15.0 mph 19.6 mph N/A   Clear
11:15 AM 64.0 °F 39.4 °F 40% 30.08 in 10.0 mi South 15.0 mph 19.6 mph N/A   Clear
11:35 AM 64.8 °F 39.0 °F 39% 30.09 in 10.0 mi South 11.5 mph - N/A   Clear
11:55 AM 65.5 °F 38.1 °F 36% 30.09 in 10.0 mi South 11.5 mph 19.6 mph N/A   Clear
12:15 PM 67.5 °F 36.7 °F 32% 30.09 in 10.0 mi SW 9.2 mph - N/A   Clear
12:35 PM 67.3 °F 37.8 °F 34% 30.09 in 10.0 mi South 6.9 mph - N/A   Clear
12:55 PM 67.5 °F 38.8 °F 35% 30.09 in 10.0 mi SSW 6.9 mph - N/A   Clear
1:15 PM 68.5 °F 39.6 °F 35% 30.08 in 10.0 mi South 4.6 mph - N/A   Clear
1:35 PM 69.1 °F 38.8 °F 33% 30.08 in 10.0 mi South 4.6 mph - N/A   Clear
1:55 PM 68.5 °F 39.0 °F 34% 30.08 in 10.0 mi South 8.1 mph - N/A   Clear
2:15 PM 69.6 °F 39.7 °F 34% 30.08 in 10.0 mi SSE 4.6 mph - N/A   Clear
2:35 PM 69.4 °F 39.0 °F 33% 30.08 in 10.0 mi Calm Calm - N/A   Clear
2:55 PM 70.5 °F 38.8 °F 32% 30.08 in 10.0 mi SE 6.9 mph - N/A   Clear
3:15 PM 70.9 °F 39.2 °F 32% 30.08 in 10.0 mi ESE 3.5 mph - N/A   Clear
3:35 PM 71.2 °F 38.7 °F 31% 30.08 in 10.0 mi SSW 4.6 mph - N/A   Clear
3:55 PM 71.1 °F 37.0 °F 29% 30.08 in 10.0 mi Calm Calm - N/A   Clear
4:15 PM 72.1 °F 37.8 °F 29% 30.07 in 10.0 mi South 3.5 mph - N/A   Clear
4:35 PM 72.1 °F 37.4 °F 28% 30.07 in 10.0 mi West 3.5 mph - N/A   Clear
4:55 PM 71.8 °F 38.1 °F 29% 30.07 in 10.0 mi ESE 3.5 mph - N/A   Clear
5:15 PM 72.0 °F 38.1 °F 29% 30.07 in 10.0 mi Calm Calm - N/A   Clear
5:35 PM 71.8 °F 38.5 °F 30% 30.07 in 10.0 mi Calm Calm - N/A   Clear
5:55 PM 71.8 °F 38.5 °F 30% 30.07 in 10.0 mi ESE 5.8 mph - N/A   Clear
6:15 PM 71.1 °F 44.1 °F 38% 30.08 in 10.0 mi SSE 13.8 mph 17.3 mph N/A   Clear
6:35 PM 70.2 °F 44.2 °F 39% 30.08 in 10.0 mi SSE 12.7 mph - N/A   Clear
6:55 PM 68.2 °F 46.6 °F 46% 30.09 in 10.0 mi SSE 16.1 mph 21.9 mph N/A   Clear
7:15 PM 66.4 °F 46.9 °F 50% 30.10 in 10.0 mi SSE 15.0 mph 19.6 mph N/A   Clear
7:35 PM 65.5 °F 47.3 °F 52% 30.10 in 10.0 mi SSE 13.8 mph 19.6 mph N/A   Clear
7:55 PM 63.5 °F 47.8 °F 57% 30.11 in 10.0 mi SSE 11.5 mph - N/A   Clear
8:15 PM 62.6 °F 47.8 °F 58% 30.11 in 10.0 mi SSE 9.2 mph - N/A   Clear
8:35 PM 61.3 °F 47.8 °F 61% 30.12 in 10.0 mi SSE 9.2 mph - N/A   Clear
8:55 PM 60.4 °F 47.7 °F 63% 30.13 in 10.0 mi SSE 9.2 mph - N/A   Clear
9:15 PM 59.7 °F 47.5 °F 64% 30.14 in 10.0 mi SSE 9.2 mph - N/A   Clear
9:35 PM 58.6 °F 47.3 °F 66% 30.15 in 10.0 mi SSE 12.7 mph - N/A   Clear
9:55 PM 57.2 °F 46.6 °F 68% 30.16 in 10.0 mi SSE 10.4 mph - N/A   Clear
10:15 PM 56.3 °F 46.4 °F 69% 30.17 in 10.0 mi SSE 12.7 mph - N/A   Clear
10:35 PM 54.9 °F 46.4 °F 73% 30.17 in 10.0 mi SSE 11.5 mph - N/A   Clear
10:55 PM 53.8 °F 46.2 °F 76% 30.18 in 10.0 mi South 12.7 mph 18.4 mph N/A   Clear
11:15 PM 53.2 °F 46.4 °F 78% 30.18 in 10.0 mi South 9.2 mph - N/A   Clear
11:35 PM 52.7 °F 46.2 °F 79% 30.19 in 10.0 mi South 9.2 mph - N/A   Clear
11:55 PM 51.8 °F 46.0 °F 81% 30.19 in 10.0 mi South 6.9 mph - N/A   Clear